Regional Weather Roundup
Issued by NWS

Home | Current Version | Previous Version | Text Only | Print | Product List | Glossary On
Versions: 1 2 3 4 5 6 7 8 9 10 11 12 13 14 15 16 17 18 19 20 21 22 23 24 25 26 27 28 29 30 31 32 33 34 35 36 37 38 39 40 41 42 43 44 45 46 47 48 49 50
000
ASUS43 KBIS 051210
RWRND

NORTH DAKOTA REGIONAL WEATHER ROUNDUP
NATIONAL WEATHER SERVICE BISMARCK ND
700 AM CDT SAT SEP 05 2015

NOTE: "FAIR" INDICATES FEW OR NO CLOUDS BELOW 12,000 FEET WITH NO
SIGNIFICANT WEATHER AND/OR OBSTRUCTIONS TO VISIBILITY.


NDZ001>003-009>011-017-051300-
NORTHWEST NORTH DAKOTA

CITY           SKY/WX    TMP DP  RH WIND       PRES   REMARKS
WILLISTON      MOCLDY    59  57  93 NE9       29.87S
6HR MIN TEMP:  58; 6HR MAX TEMP:  60; 6HR PCP:  0.55;

MINOT          CLOUDY    59  57  93 NE15      29.90F
MINOT AFB      CLOUDY    59  59 100 E23       29.86F
$$

NDZ018>021-031>035-040>046-051300-
SOUTHWEST NORTH DAKOTA

CITY           SKY/WX    TMP DP  RH WIND       PRES   REMARKS
BISMARCK       CLOUDY    68  68 100 E12       29.84F FOG
6HR MIN TEMP:  67; 6HR MAX TEMP:  69;

DICKINSON      CLOUDY    63  60  90 E14       29.84F
GARRISON         N/A     64  60  87 NE10      29.88F
6HR MIN TEMP:  62; 6HR MAX TEMP:  64; 6HR PCP:  0.02;

HETTINGER ARPT CLOUDY    64  62  93 NE21      29.83F FOG
$$

NDZ004>008-012>016-024-026-027-054-051300-
NORTHEAST NORTH DAKOTA

CITY           SKY/WX    TMP DP  RH WIND       PRES   REMARKS
GRAND FORKS    CLOUDY    64  63  96 N12       29.88S
GRND FRKS AFB  FOG       63  63 100 N13       29.89F VSB 1/2
DEVILS LAKE    CLOUDY    61  55  82 NE14      29.89F
$$

NDZ022-023-025-028>030-036>039-047>053-051300-
SOUTHEAST NORTH DAKOTA

CITY           SKY/WX    TMP DP  RH WIND       PRES   REMARKS
FARGO          CLEAR     68  66  93 NE3       29.84S
6HR MIN TEMP:  67; 6HR MAX TEMP:  74;

JAMESTOWN      FOG       67  66  97 E12       29.86R VSB 1/2
$$



USA.gov is the U.S. government's official web portal to all federal, state and local government web resources and services.